Location: ??????
(41.3794°N, 22.5014°E)
Time: 08:17:20
(UTC+00:00)

USA 215 - Pass Details

Date: 30 November 2020
Orbit: 1098 x 1110 km, 123.0° (Epoch: 14 January)

Event Time Altitude Azimuth Distance (km) Brightness Sun altitude
Exits shadow 15:56:19 12° 60° (ENE) 2,829 4.8 -10.2°
Maximum altitude 16:02:06 43° 129° (SE) 1,506 3.8 -11.2°
Drops below altitude 10° 16:08:16 10° 200° (SSW) 2,963 6.1 -12.3°
Sets 16:10:54 0° 207° (SSW) 3,918 6.9 -12.8°
